Regional Weather Roundup
Issued by NWS Goodland, KS

Home | Current Version | Previous Version | Text Only | Print | Product List | Glossary Off
Versions: 1 2 3 4 5 6 7 8 9 10 11 12 13 14 15 16 17 18 19 20 21 22 23 24 25 26 27 28 29 30 31 32 33 34 35 36 37 38 39 40 41 42 43 44 45 46 47 48 49 50

000
ASUS43 KGLD 200659
RWRGLD

GOODLAND FORECAST AREA HOURLY WEATHER ROUNDUP
NATIONAL WEATHER SERVICE GOODLAND KS
100 AM MDT FRI APR 20 2018

...OFFICIAL OBSERVATIONS...

CITY           SKY/WX    TMP DP  RH WIND       PRES   REMARKS
GOODLAND KS    CLOUDY    42  26  53 SE17G28   30.17S
HILL CITY KS   CLOUDY    39  27  62 E7        30.30R
IMPERIAL NEB   CLOUDY    41  27  57 E18       30.20S
MCCOOK NEB     MOCLDY    40  28  62 E9        30.25F
AKRON CO       MOCLDY    41  26  55 SE25G36   30.06S
BURLINGTON CO  CLOUDY    41  26  55 SE25G36   30.13S
LIMON CO       PTCLDY    42  23  46 SE24      30.04F
$$

...UNOFFICIAL OBSERVATIONS...

CITY           SKY/WX    TMP DP  RH WIND       PRES   REMARKS
NORTON KS      CLEAR     39  27  60 E9        30.28
SHARON SPRINGS   N/A     42  27  55 SE18G25     N/A
KIT CARSON CO    N/A     45  26  47 MISG        N/A
YUMA CO        FAIR      39  27  60 SE21G28   30.10S
$$




USA.gov is the U.S. government's official web portal to all federal, state and local government web resources and services.